TimeCDT,TemperatureF,Dew PointF,Humidity,Sea Level PressureIn,VisibilityMPH,Wind Direction,Wind SpeedMPH,Gust SpeedMPH,PrecipitationIn,Events,Conditions,WindDirDegrees,DateUTC
12:54 AM,78.1,71.1,79,29.79,10.0,SE,8.1,-,N/A,,Clear,140,2013-09-09 05:54:00
1:54 AM,77.0,71.1,82,29.79,10.0,SE,6.9,-,N/A,,Clear,130,2013-09-09 06:54:00
2:54 AM,75.9,71.1,85,29.78,10.0,SE,8.1,-,N/A,,Clear,140,2013-09-09 07:54:00
3:54 AM,73.9,70.0,87,29.78,8.0,SSE,6.9,-,N/A,,Clear,150,2013-09-09 08:54:00
4:54 AM,73.0,69.1,87,29.78,9.0,South,5.8,-,N/A,,Clear,180,2013-09-09 09:54:00
5:54 AM,73.0,68.0,84,29.78,9.0,South,4.6,-,N/A,,Clear,190,2013-09-09 10:54:00
6:54 AM,73.0,66.0,79,29.80,9.0,SSW,4.6,-,N/A,,Clear,210,2013-09-09 11:54:00
7:54 AM,75.9,66.0,71,29.81,10.0,SSW,4.6,-,N/A,,Clear,200,2013-09-09 12:54:00
8:54 AM,80.1,66.0,62,29.82,10.0,SW,9.2,-,N/A,,Partly Cloudy,230,2013-09-09 13:54:00
9:54 AM,87.1,64.0,46,29.81,10.0,WSW,11.5,19.6,N/A,,Partly Cloudy,240,2013-09-09 14:54:00
10:54 AM,91.9,63.0,38,29.81,10.0,SW,13.8,-,N/A,,Partly Cloudy,230,2013-09-09 15:54:00
11:54 AM,95.0,63.0,34,29.80,10.0,SW,12.7,-,N/A,,Partly Cloudy,230,2013-09-09 16:54:00
12:54 PM,99.0,61.0,28,29.79,10.0,WSW,15.0,-,N/A,,Partly Cloudy,240,2013-09-09 17:54:00
1:54 PM,100.0,61.0,28,29.78,10.0,SSW,17.3,-,N/A,,Partly Cloudy,200,2013-09-09 18:54:00
2:54 PM,100.9,59.0,25,29.76,10.0,SW,15.0,32.2,N/A,,Partly Cloudy,220,2013-09-09 19:54:00
3:54 PM,100.9,60.1,26,29.76,10.0,WSW,19.6,28.8,N/A,,Partly Cloudy,240,2013-09-09 20:54:00
4:54 PM,99.0,59.0,26,29.76,10.0,SW,18.4,29.9,N/A,,Clear,230,2013-09-09 21:54:00
5:54 PM,97.0,60.1,29,29.77,10.0,SW,18.4,-,N/A,,Clear,230,2013-09-09 22:54:00
6:54 PM,93.0,61.0,34,29.78,10.0,SW,9.2,-,N/A,,Clear,220,2013-09-09 23:54:00
7:54 PM,89.1,62.1,40,29.80,10.0,SW,8.1,-,N/A,,Clear,220,2013-09-10 00:54:00
8:54 PM,87.1,61.0,41,29.81,10.0,SSW,9.2,-,N/A,,Clear,210,2013-09-10 01:54:00
9:54 PM,82.9,62.1,49,29.83,10.0,South,6.9,-,N/A,,Clear,190,2013-09-10 02:54:00
10:54 PM,81.0,62.1,52,29.83,10.0,South,8.1,-,N/A,,Clear,190,2013-09-10 03:54:00
11:54 PM,80.1,61.0,52,29.84,10.0,SSW,6.9,-,N/A,,Clear,210,2013-09-10 04:54:00